• In Netherlands
  • List of Countries
  • For 7 days
  • Water Temperature
  • Satellite Maps
  • Weather Map
  • Weather Widgets
  • user-avatar
    Login

    Hourly Weather Armawir

    Today, 24 July, Monday

    Time Temperature Precipitation Wind Pressure Humidity
    00:00 +24°C° 0 mm 3 mps 685 mmHg 66%
    01:00 +24°C° 0 mm 3 mps 685 mmHg 68%
    02:00 +22°C° 0 mm 3 mps 685 mmHg 70%
    03:00 +23°C° 0 mm 4 mps 683 mmHg 70%
    04:00 +24°C° 0 mm 3 mps 684 mmHg 70%
    05:00 +24°C° 0 mm 3 mps 684 mmHg 70%
    06:00 +24°C° 0 mm 3 mps 684 mmHg 69%
    07:00 +26°C° 0 mm 3 mps 684 mmHg 62%
    08:00 +27°C° 0 mm 3 mps 684 mmHg 54%
    09:00 +29°C° 0 mm 2 mps 684 mmHg 47%
    10:00 +30°C° 0.1 mm 3 mps 684 mmHg 43%
    11:00 +33°C° 0.1 mm 3 mps 684 mmHg 40%
    12:00 +34°C° 0.1 mm 3 mps 684 mmHg 36%
    13:00 +34°C° 0.4 mm 3 mps 683 mmHg 36%
    14:00 +34°C° 0.4 mm 3 mps 683 mmHg 35%
    15:00 +35°C° 0 mm 3 mps 683 mmHg 34%
    16:00 +34°C° 0.6 mm 3 mps 683 mmHg 36%
    17:00 +34°C° 0.6 mm 4 mps 683 mmHg 37%
    18:00 +33°C° 0.6 mm 4 mps 683 mmHg 39%
    19:00 +30°C° 0.3 mm 3 mps 683 mmHg 46%
    20:00 +28°C° 0.3 mm 3 mps 683 mmHg 53%
    21:00 +26°C° 0.3 mm 2 mps 683 mmHg 60%
    22:00 +25°C° 0.2 mm 2 mps 683 mmHg 62%
    23:00 +24°C° 0.2 mm 2 mps 683 mmHg 65%

    Tomorrow, 25 July, Tuesday

    Time Temperature Precipitation Wind Pressure Humidity
    00:00 +24°C° 0.2 mm 2 mps 683 mmHg 68%
    01:00 +23°C° 0.1 mm 2 mps 683 mmHg 70%
    02:00 +23°C° 0.1 mm 2 mps 683 mmHg 72%
    03:00 +23°C° 0.1 mm 2 mps 683 mmHg 73%
    04:00 +23°C° 0 mm 2 mps 683 mmHg 72%
    05:00 +23°C° 0 mm 2 mps 683 mmHg 71%
    06:00 +24°C° 0 mm 2 mps 683 mmHg 70%
    07:00 +25°C° 0.1 mm 2 mps 683 mmHg 61%
    08:00 +27°C° 0.1 mm 2 mps 683 mmHg 53%
    09:00 +29°C° 0.1 mm 2 mps 683 mmHg 44%
    10:00 +31°C° 0.2 mm 2 mps 683 mmHg 39%
    11:00 +32°C° 0.2 mm 2 mps 683 mmHg 35%
    12:00 +35°C° 0.2 mm 2 mps 683 mmHg 30%
    13:00 +35°C° 0.1 mm 2 mps 683 mmHg 29%
    14:00 +35°C° 0.1 mm 2 mps 682 mmHg 28%
    15:00 +35°C° 0.1 mm 2 mps 682 mmHg 27%
    16:00 +35°C° 0.3 mm 2 mps 682 mmHg 28%
    17:00 +34°C° 0.3 mm 3 mps 682 mmHg 30%
    18:00 +34°C° 0.3 mm 3 mps 682 mmHg 32%
    19:00 +31°C° 0.2 mm 3 mps 682 mmHg 38%
    20:00 +28°C° 0.2 mm 3 mps 682 mmHg 45%
    21:00 +26°C° 0.2 mm 2 mps 683 mmHg 51%
    22:00 +26°C° 0.1 mm 2 mps 683 mmHg 54%
    23:00 +25°C° 0.1 mm 2 mps 683 mmHg 57%

    Day after tomorrow, 26 July, Wednesday

    Time Temperature Precipitation Wind Pressure Humidity
    00:00 +24°C° 0.1 mm 2 mps 683 mmHg 60%
    01:00 +24°C° 0 mm 2 mps 683 mmHg 62%
    02:00 +23°C° 0 mm 2 mps 683 mmHg 63%
    03:00 +23°C° 0 mm 2 mps 683 mmHg 65%
    04:00 +23°C° 0 mm 2 mps 683 mmHg 64%
    05:00 +23°C° 0 mm 1 mps 683 mmHg 63%
    06:00 +24°C° 0 mm 1 mps 683 mmHg 63%
    07:00 +26°C° 0.1 mm 1 mps 683 mmHg 54%
    08:00 +28°C° 0.1 mm 1 mps 684 mmHg 46%
    09:00 +30°C° 0.1 mm 1 mps 684 mmHg 38%
    10:00 +31°C° 0 mm 2 mps 684 mmHg 34%
    11:00 +34°C° 0 mm 2 mps 684 mmHg 30%
    12:00 +35°C° 0 mm 2 mps 684 mmHg 26%
    13:00 +36°C° 0 mm 2 mps 683 mmHg 25%
    14:00 +36°C° 0 mm 2 mps 683 mmHg 23%
    15:00 +37°C° 0 mm 2 mps 683 mmHg 22%
    16:00 +36°C° 0.1 mm 2 mps 683 mmHg 23%
    17:00 +36°C° 0.1 mm 2 mps 683 mmHg 25%
    18:00 +35°C° 0.1 mm 2 mps 683 mmHg 27%
    19:00 +32°C° 0.1 mm 2 mps 683 mmHg 34%
    20:00 +29°C° 0.1 mm 2 mps 683 mmHg 41%
    21:00 +27°C° 0.1 mm 2 mps 684 mmHg 47%
    22:00 +26°C° 0.1 mm 2 mps 684 mmHg 51%
    23:00 +26°C° 0.1 mm 2 mps 684 mmHg 54%

    27 July, Thursday

    Time Temperature Precipitation Wind Pressure Humidity
    00:00 +25°C° 0.1 mm 2 mps 685 mmHg 58%
    01:00 +24°C° 0.1 mm 2 mps 685 mmHg 60%
    02:00 +24°C° 0.1 mm 2 mps 685 mmHg 61%
    03:00 +23°C° 0.1 mm 2 mps 685 mmHg 63%
    04:00 +24°C° 0 mm 1 mps 685 mmHg 63%
    05:00 +24°C° 0 mm 1 mps 685 mmHg 62%
    06:00 +25°C° 0 mm 1 mps 685 mmHg 61%
    07:00 +27°C° 0 mm 1 mps 685 mmHg 53%
    08:00 +29°C° 0 mm 1 mps 686 mmHg 45%
    09:00 +31°C° 0 mm 1 mps 686 mmHg 37%
    10:00 +32°C° 0 mm 2 mps 686 mmHg 33%
    11:00 +35°C° 0 mm 2 mps 685 mmHg 29%
    12:00 +36°C° 0 mm 2 mps 685 mmHg 24%
    13:00 +37°C° 0 mm 2 mps 685 mmHg 23%
    14:00 +38°C° 0 mm 2 mps 685 mmHg 21%
    15:00 +39°C° 0 mm 2 mps 684 mmHg 19%
    16:00 +38°C° 0 mm 2 mps 684 mmHg 21%
    17:00 +37°C° 0 mm 2 mps 684 mmHg 22%
    18:00 +37°C° 0 mm 2 mps 684 mmHg 24%
    19:00 +34°C° 0 mm 2 mps 685 mmHg 30%
    20:00 +31°C° 0 mm 2 mps 685 mmHg 36%
    21:00 +28°C° 0 mm 2 mps 685 mmHg 42%
    22:00 +28°C° 0 mm 2 mps 685 mmHg 46%
    23:00 +27°C° 0 mm 2 mps 685 mmHg 51%

    28 July, Friday

    Time Temperature Precipitation Wind Pressure Humidity
    00:00 +26°C° 0 mm 2 mps 685 mmHg 55%
    01:00 +26°C° 0 mm 2 mps 685 mmHg 57%
    02:00 +25°C° 0 mm 1 mps 685 mmHg 58%
    03:00 +25°C° 0 mm 1 mps 685 mmHg 59%
    04:00 +25°C° 0 mm 1 mps 685 mmHg 58%
    05:00 +26°C° 0 mm 1 mps 686 mmHg 56%
    06:00 +26°C° 0 mm 1 mps 686 mmHg 55%
    07:00 +29°C° 0 mm 1 mps 686 mmHg 46%
    08:00 +31°C° 0 mm 2 mps 686 mmHg 37%
    09:00 +35°C° 0 mm 2 mps 686 mmHg 27%
    10:00 +36°C° 0 mm 2 mps 686 mmHg 24%
    11:00 +38°C° 0 mm 3 mps 686 mmHg 21%
    12:00 +39°C° 0 mm 3 mps 686 mmHg 18%
    13:00 +40°C° 0 mm 3 mps 686 mmHg 17%
    14:00 +40°C° 0 mm 3 mps 686 mmHg 15%
    15:00 +42°C° 0 mm 3 mps 685 mmHg 14%
    16:00 +40°C° 0 mm 3 mps 685 mmHg 15%
    17:00 +39°C° 0 mm 3 mps 685 mmHg 17%
    18:00 +39°C° 0 mm 2 mps 685 mmHg 18%
    19:00 +36°C° 0 mm 2 mps 685 mmHg 21%
    20:00 +34°C° 0 mm 2 mps 685 mmHg 24%
    21:00 +30°C° 0 mm 2 mps 686 mmHg 27%
    22:00 +29°C° 0 mm 2 mps 686 mmHg 28%
    23:00 +29°C° 0 mm 1 mps 686 mmHg 29%

    29 July, Saturday

    Time Temperature Precipitation Wind Pressure Humidity
    00:00 +28°C° 0 mm 1 mps 686 mmHg 30%
    01:00 +27°C° 0 mm 1 mps 686 mmHg 30%
    02:00 +27°C° 0 mm 1 mps 686 mmHg 29%
    03:00 +27°C° 0 mm 1 mps 686 mmHg 29%
    04:00 +27°C° 0 mm 1 mps 686 mmHg 30%
    05:00 +27°C° 0 mm 1 mps 686 mmHg 31%
    06:00 +28°C° 0 mm 1 mps 686 mmHg 31%
    07:00 +30°C° 0 mm 1 mps 687 mmHg 27%
    08:00 +34°C° 0 mm 2 mps 687 mmHg 22%
    09:00 +36°C° 0 mm 2 mps 687 mmHg 18%
    10:00 +38°C° 0 mm 3 mps 687 mmHg 17%
    11:00 +39°C° 0 mm 3 mps 687 mmHg 16%
    12:00 +42°C° 0 mm 4 mps 686 mmHg 15%
    13:00 +42°C° 0 mm 4 mps 686 mmHg 15%
    14:00 +42°C° 0 mm 5 mps 686 mmHg 14%
    15:00 +42°C° 0 mm 5 mps 686 mmHg 14%
    16:00 +41°C° 0 mm 4 mps 686 mmHg 17%
    17:00 +39°C° 0 mm 3 mps 686 mmHg 19%
    18:00 +38°C° 0 mm 2 mps 686 mmHg 21%
    19:00 +35°C° 0 mm 3 mps 686 mmHg 30%
    20:00 +33°C° 0 mm 4 mps 686 mmHg 38%
    21:00 +29°C° 0 mm 4 mps 687 mmHg 47%
    22:00 +28°C° 0 mm 4 mps 687 mmHg 53%
    23:00 +27°C° 0 mm 3 mps 687 mmHg 59%
    Show more